User: anonymous   Login
Location: Decatur(IL)
(39.8400°N, 88.9550°W)
Time: 02:13:10
(UTC-06:00)
Language:

Cosmos 2242 Rocket - Orbit

View from above orbital plane
View from above orbital plane
View from above satellite
View from above satellite

Ground track
Ground track

The orbit data is extracted from the following two-line orbital elements,

1 22627U 93024B   16038.52391050  .00000231  00000-0  28717-4 0  9995
2 22627  82.5216 200.3770 0024359 148.3201 272.9188 14.77994828228936
Epoch (UTC): 07 February 2016 12:34:25
Eccentricity: 0.0024359
inclination: 82.5216°
perigee height: 618 km
apogee height: 653 km
right ascension of ascending node: 200.3770°
argument of perigee: 148.3201°
revolutions per day: 14.77994828
mean anomaly at epoch: 272.9188°
orbit number at epoch: 22893

The dashed part of the orbit path shows where the satellite is in the earth's shadow,  

DLR